Find Local Weather

World > North America > United States > Ohio

Millbury, Ohio Regional Weather

Lat: 41.56N, Lon: 83.43W
Wx Zone: OHZ006
Feedback
Expires:201810210400;;498729
ASUS41 KCLE 210312
RWRCLE
OHIO REGIONAL WEATHER ROUNDUP
NATIONAL WEATHER SERVICE WILMINGTON, OH
1100 PM EDT SAT OCT 20 2018

NOTE: "FAIR" INDICATES FEW OR NO CLOUDS BELOW 12,000 FEET WITH NO
SIGNIFICANT WEATHER AND/OR OBSTRUCTIONS TO VISIBILITY.


OHZ001>008-015>018-024>027-034-035-043-044-210400-
   NORTHWEST OHIO
  
CITY           SKY/WX    TMP DP  RH WIND       PRES   REMARKS
DEFIANCE       MOCLDY    36  28  73 NW17G29   30.14R                  
FINDLAY        MOCLDY    39  33  79 NW21G30   30.08R                  
TOLEDO EXPRESS FAIR      38  25  59 NW18G28   30.10R                  
TOLEDO EXEC    FAIR      37  27  67 NW24      30.09R                  
LIMA           NOT AVBL                                               
$$
 

SKY/WX - Weather  TMP - Temperature  DP - Dew Point  RH - Relative Humidity
WIND - Wind Direction/Speed PRES - Barometric Pressure